QPF
0.00 0.00 0.00 0.00 0.00 0.00 0.00 0.00 0.00 0.00 0.00 0.00 0.00 0.00 0.00 0.00 0.00 0.00 0.00 0.00 0.00 0.00 0.00 0.00 0.00 0.00 0.00 0.00 0.00 0.00 0.00 0.00 0.00 0.00 0.00 0.00 0.00 0.00 0.00 0.00 0.00 0.00 0.00 0.00 0.00 0.00 0.00 0.00 0.00
0.00 0.00 0.00 0.00 0.00 0.00 0.00 0.00 0.00 0.00 0.00 0.00 0.00 0.00 0.00 0.00 0.00 0.00 0.00 0.00 0.00 0.00 0.00 0.00 0.00 0.00 0.00 0.00 0.00 0.00 0.00 0.00 0.00 0.00 0.00 0.00 0.00 0.00 0.00 0.00 0.00 0.00 0.00 0.00 0.00 0.00 0.00 0.00 0.00
0.00 0.00 0.00 0.00 0.00 0.00 0.00 0.00 0.00 0.00 0.00 0.00 0.00 0.00 0.00 0.00 0.00 0.00 0.00 0.00 0.00 0.00 0.00 0.00 0.00 0.00 0.00 0.00 0.00 0.00 0.00 0.00 0.00 0.00 0.00 0.00 0.00 0.00 0.00 0.00 0.00 0.00 0.00 0.00 0.00 0.00 0.00 0.00 0.00
0.00 0.00 0.00 0.00 0.00 0.00 0.00 0.00 0.00 0.00 0.00 0.00 0.00 0.00 0.00 0.00 0.00 0.00 0.00 0.00 0.00 0.00 0.00 0.00 0.00 0.00 0.00 0.00 0.00 0.00 0.00 0.00 0.00 0.00 0.00 0.00 0.00 0.00 0.00 0.00 0.00 0.00 0.00 0.00 0.00 0.00 0.00 0.00 0.00
0.00 0.00 0.00 0.00 0.00 0.00 0.00 0.00 0.00 0.00 0.00 0.00 0.00 0.00 0.00 0.00 0.00 0.00 0.00 0.00 0.00 0.00 0.00 0.00 0.00 0.00 0.00 0.00 0.00 0.00 0.00 0.00 0.00 0.00 0.00 0.00 0.00 0.00 0.00 0.00 0.00 0.00 0.00 0.00 0.00 0.00 0.00 0.00 0.00
0.00 0.00 0.00 0.00 0.00 0.00 0.00 0.00 0.00 0.00 0.00 0.00 0.00 0.00 0.00 0.00 0.00 0.00 0.00 0.00 0.00 0.00 0.00 0.00 0.00 0.00 0.00 0.00 0.00 0.00 0.00 0.00 0.00 0.00 0.00 0.00 0.00 0.00 0.00 0.00 0.00 0.00 0.00 0.00 0.00 0.00 0.00 0.00 0.00
0.00 0.00 0.00 0.00 0.00 0.00 0.00 0.00 0.00 0.00 0.00 0.00 0.00 0.00 0.00 0.00 0.00 0.00 0.00 0.00 0.00 0.00 0.00 0.00 0.00 0.00 0.00 0.00 0.00 0.00 0.00 0.00 0.00 0.00 0.00 0.00 0.00 0.00 0.00 0.00 0.00 0.00 0.00 0.00 0.00 0.00 0.00 0.00 0.00
0.00 0.00 0.00 0.00 0.00 0.00 0.00 0.00 0.00 0.00 0.00 0.00 0.00 0.00 0.00 0.00 0.00 0.00 0.00 0.00 0.00 0.00 0.00 0.00 0.00 0.00 0.00 0.00 0.00 0.00 0.00 0.00 0.00 0.00 0.00 0.00 0.00 0.00 0.00 0.00 0.00 0.00 0.00 0.00 0.00 0.00 0.00 0.00 0.00
0.00 0.00 0.00 0.00 0.00 0.00 0.00 0.00 0.00 0.00 0.00 0.00 0.00 0.00 0.00 0.00 0.00 0.00 0.00 0.00 0.00 0.00 0.00 0.00 0.00 0.00 0.00 0.00 0.00 0.00 0.00 0.00 0.00 0.00 0.00 0.00 0.00 0.00 0.00 0.00 0.00 0.00 0.00 0.00 0.00 0.00 0.00 0.00 0.00
0.00 0.00 0.00 0.00 0.00 0.00 0.00 0.00 0.00 0.00 0.00 0.00 0.00 0.00 0.00 0.00 0.00 0.00 0.00 0.00 0.00 0.00 0.01 0.04 0.05 0.05 0.02 0.01 0.01 0.00 0.00 0.00 0.00 0.00 0.00 0.00 0.00 0.00 0.00 0.00 0.00 0.00 0.00 0.00 0.00 0.00 0.00 0.00 0.00
0.00 0.00 0.00 0.00 0.00 0.00 0.00 0.00 0.00 0.00 0.00 0.00 0.00 0.00 0.00 0.00 0.00 0.00 0.00 0.00 0.00 0.01 0.01 0.04 0.08 0.04 0.03 0.05 0.07 0.06 0.04 0.04 0.06 0.03 0.01 0.00 0.00 0.00 0.00 0.00 0.00 0.00 0.00 0.00 0.00 0.00 0.00 0.00 0.00
0.00 0.00 0.00 0.00 0.00 0.00 0.00 0.00 0.00 0.00 0.00 0.00 0.00 0.00 0.00 0.00 0.00 0.00 0.00 0.00 0.00 0.00 0.00 0.01 0.04 0.04 0.02 0.08 0.14 0.15 0.13 0.08 0.05 0.01 0.00 0.00 0.00 0.00 0.00 0.00 0.00 0.00 0.00 0.00 0.00 0.00 0.00 0.00 0.00
0.00 0.00 0.00 0.00 0.00 0.00 0.00 0.00 0.00 0.00 0.00 0.00 0.00 0.00 0.00 0.00 0.00 0.00 0.00 0.00 0.00 0.00 0.00 0.00 0.00 0.02 0.03 0.05 0.09 0.09 0.05 0.03 0.04 0.05 0.03 0.03 0.04 0.02 0.03 0.02 0.02 0.01 0.01 0.00 0.00 0.00 0.00 0.00 0.00
0.00 0.00 0.00 0.00 0.00 0.00 0.00 0.00 0.00 0.00 0.00 0.00 0.00 0.00 0.00 0.00 0.00 0.00 0.00 0.00 0.00 0.00 0.00 0.00 0.00 0.00 0.00 0.00 0.01 0.02 0.06 0.06 0.06 0.05 0.05 0.05 0.08 0.11 0.11 0.11 0.08 0.05 0.06 0.09 0.11 0.09 0.06 0.04 0.06
0.00 0.00 0.00 0.00 0.00 0.00 0.00 0.00 0.00 0.00 0.00 0.00 0.00 0.00 0.00 0.00 0.00 0.00 0.00 0.00 0.00 0.00 0.00 0.00 0.00 0.00 0.00 0.00 0.00 0.00 0.00 0.02 0.02 0.01 0.02 0.01 0.01 0.01 0.01 0.02 0.04 0.04 0.03 0.04 0.09 0.13 0.16 0.24 0.24
0.00 0.00 0.00 0.00 0.00 0.00 0.00 0.00 0.00 0.00 0.00 0.00 0.00 0.00 0.00 0.00 0.00 0.00 0.00 0.00 0.00 0.00 0.00 0.00 0.00 0.00 0.00 0.00 0.00 0.00 0.00 0.00 0.00 0.00 0.00 0.00 0.00 0.00 0.00 0.00 0.01 0.02 0.02 0.02 0.03 0.06 0.04 0.03 0.08
0.00 0.00 0.00 0.00 0.00 0.00 0.00 0.00 0.00 0.00 0.00 0.00 0.00 0.00 0.00 0.00 0.00 0.00 0.00 0.00 0.00 0.00 0.00 0.00 0.00 0.00 0.00 0.00 0.00 0.00 0.00 0.00 0.00 0.00 0.00 0.00 0.00 0.00 0.00 0.00 0.00 0.00 0.00 0.01 0.02 0.03 0.05 0.04 0.02
0.00 0.00 0.00 0.00 0.00 0.00 0.00 0.00 0.00 0.00 0.00 0.00 0.00 0.00 0.00 0.00 0.00 0.00 0.00 0.00 0.00 0.00 0.00 0.00 0.00 0.00 0.00 0.00 0.00 0.00 0.00 0.00 0.00 0.00 0.00 0.00 0.00 0.00 0.00 0.00 0.00 0.00 0.00 0.00 0.00 0.01 0.04 0.06 0.08
0.00 0.00 0.00 0.00 0.00 0.00 0.00 0.00 0.00 0.00 0.00 0.00 0.00 0.00 0.00 0.00 0.00 0.00 0.00 0.00 0.00 0.00 0.00 0.00 0.00 0.00 0.00 0.00 0.00 0.00 0.00 0.00 0.00 0.00 0.00 0.00 0.00 0.00 0.00 0.00 0.00 0.00 0.00 0.00 0.00 0.00 0.01 0.05 0.09
0.00 0.00 0.00 0.00 0.00 0.00 0.00 0.00 0.00 0.00 0.00 0.00 0.00 0.00 0.00 0.00 0.00 0.00 0.00 0.00 0.00 0.00 0.00 0.00 0.00 0.00 0.00 0.00 0.00 0.00 0.00 0.00 0.00 0.00 0.00 0.00 0.00 0.00 0.00 0.00 0.00 0.00 0.00 0.00 0.00 0.00 0.00 0.00 0.03
0.00 0.00 0.00 0.00 0.00 0.00 0.00 0.00 0.00 0.00 0.00 0.00 0.00 0.00 0.00 0.00 0.00 0.00 0.00 0.00 0.00 0.00 0.00 0.00 0.00 0.00 0.00 0.00 0.00 0.00 0.00 0.00 0.00 0.00 0.00 0.00 0.00 0.00 0.00 0.00 0.00 0.00 0.00 0.00 0.00 0.00 0.00 0.00 0.00
0.00 0.00 0.00 0.00 0.00 0.00 0.00 0.00 0.00 0.00 0.00 0.00 0.00 0.00 0.00 0.00 0.00 0.00 0.00 0.00 0.00 0.00 0.00 0.00 0.00 0.00 0.00 0.00 0.00 0.00 0.00 0.00 0.00 0.00 0.00 0.00 0.00 0.00 0.00 0.00 0.00 0.00 0.00 0.00 0.00 0.00 0.00 0.00 0.00
0.00 0.00 0.00 0.00 0.00 0.00 0.00 0.00 0.00 0.00 0.00 0.00 0.00 0.00 0.00 0.00 0.00 0.00 0.00 0.00 0.00 0.00 0.00 0.00 0.00 0.00 0.00 0.00 0.00 0.00 0.00 0.00 0.00 0.00 0.00 0.00 0.00 0.00 0.00 0.00 0.00 0.00 0.00 0.00 0.00 0.00 0.00 0.00 0.00
0.00 0.00 0.00 0.00 0.00 0.00 0.00 0.00 0.00 0.00 0.00 0.00 0.00 0.00 0.00 0.00 0.00 0.00 0.00 0.00 0.00 0.00 0.00 0.00 0.00 0.00 0.00 0.00 0.00 0.00 0.00 0.00 0.00 0.00 0.00 0.00 0.00 0.00 0.00 0.00 0.00 0.00 0.00 0.00 0.00 0.00 0.00 0.00 0.01
0.00 0.00 0.00 0.00 0.00 0.00 0.00 0.00 0.00 0.00 0.00 0.00 0.00 0.00 0.00 0.00 0.00 0.00 0.00 0.00 0.00 0.00 0.00 0.00 0.00 0.00 0.00 0.00 0.00 0.00 0.00 0.00 0.00 0.00 0.00 0.00 0.00 0.00 0.00 0.00 0.00 0.00 0.00 0.00 0.00 0.00 0.00 0.00 0.00
0.01 0.01 0.01 0.00 0.00 0.00 0.00 0.00 0.00 0.00 0.00 0.00 0.00 0.00 0.00 0.00 0.00 0.00 0.00 0.00 0.00 0.00 0.00 0.00 0.00 0.00 0.00 0.00 0.00 0.00 0.00 0.00 0.00 0.00 0.00 0.00 0.00 0.00 0.00 0.00 0.00 0.00 0.00 0.00 0.00 0.00 0.00 0.00 0.00
0.01 0.01 0.00 0.00 0.00 0.00 0.00 0.00 0.00 0.00 0.00 0.00 0.00 0.00 0.00 0.00 0.00 0.00 0.00 0.00 0.00 0.00 0.00 0.00 0.00 0.00 0.00 0.00 0.00 0.00 0.00 0.00 0.00 0.00 0.00 0.00 0.00 0.00 0.00 0.00 0.00 0.00 0.00 0.00 0.00 0.00 0.00 0.00 0.00
0.01 0.00 0.00 0.00 0.00 0.00 0.00 0.00 0.00 0.00 0.00 0.00 0.00 0.00 0.00 0.00 0.00 0.00 0.00 0.00 0.00 0.00 0.00 0.00 0.00 0.00 0.00 0.00 0.00 0.00 0.00 0.00 0.00 0.00 0.00 0.00 0.00 0.00 0.00 0.00 0.00 0.00 0.00 0.00 0.00 0.00 0.00 0.00 0.00
0.01 0.00 0.00 0.00 0.00 0.00 0.00 0.00 0.00 0.00 0.00 0.00 0.00 0.00 0.00 0.00 0.00 0.00 0.00 0.00 0.00 0.00 0.00 0.00 0.00 0.00 0.00 0.00 0.00 0.00 0.00 0.00 0.00 0.00 0.00 0.00 0.00 0.00 0.00 0.00 0.00 0.00 0.00 0.00 0.00 0.00 0.00 0.00 0.00
0.00 0.00 0.00 0.00 0.00 0.00 0.00 0.00 0.00 0.00 0.00 0.00 0.00 0.00 0.00 0.00 0.00 0.00 0.00 0.00 0.00 0.00 0.00 0.00 0.00 0.00 0.00 0.00 0.00 0.00 0.00 0.00 0.00 0.00 0.00 0.00 0.00 0.00 0.00 0.00 0.00 0.00 0.00 0.00 0.00 0.00 0.00 0.00 0.00
MSLP
1013.03 1013.20 1013.31 1013.53 1015.00 1015.52 1015.10 1013.44 1011.98 1010.54 1009.44 1008.75 1008.57 1008.97 1008.68 1009.10 1009.14 1010.02 1009.48 1009.59 1009.83 1010.57 1010.70 1011.13 1011.25 1011.35 1011.54 1011.93 1012.10 1012.27 1012.46 1012.63 1012.84 1013.17 1013.45 1013.74 1014.27 1014.57 1014.78 1014.98 1015.12 1015.23 1015.34 1015.47 1015.67 1015.85 1015.99 1016.16 1016.45
1013.06 1013.20 1013.68 1014.44 1015.60 1015.94 1014.58 1012.87 1011.58 1010.44 1009.13 1008.27 1008.49 1008.72 1008.48 1008.74 1008.74 1009.38 1009.62 1009.85 1010.11 1010.29 1010.83 1011.10 1011.41 1011.63 1011.80 1012.27 1012.58 1012.78 1012.92 1013.03 1013.23 1013.53 1013.85 1014.11 1014.37 1014.68 1014.95 1015.29 1015.44 1015.57 1015.67 1015.75 1015.91 1016.15 1016.28 1016.42 1016.61
1012.97 1013.22 1014.61 1015.76 1016.86 1016.02 1014.27 1012.15 1010.83 1010.02 1009.10 1008.64 1008.32 1008.12 1008.31 1008.70 1008.94 1009.12 1009.39 1009.97 1010.41 1010.64 1010.90 1011.23 1011.58 1011.91 1012.05 1012.42 1012.83 1012.97 1013.05 1013.23 1013.44 1013.66 1013.93 1014.19 1014.50 1014.78 1015.16 1015.46 1015.67 1015.87 1016.01 1016.13 1016.24 1016.42 1016.51 1016.64 1016.90
1013.11 1014.17 1015.68 1015.93 1016.29 1014.98 1013.46 1011.27 1010.27 1009.75 1009.02 1008.58 1008.51 1008.56 1008.55 1008.55 1008.67 1008.83 1009.83 1010.32 1010.63 1010.90 1011.15 1011.50 1012.00 1012.40 1012.58 1012.85 1013.12 1013.32 1013.38 1013.56 1013.74 1014.01 1014.22 1014.42 1014.74 1014.93 1015.18 1015.43 1015.70 1015.99 1016.13 1016.32 1016.41 1016.63 1016.85 1016.97 1017.19
1013.90 1015.19 1016.18 1016.39 1015.70 1014.13 1012.32 1010.72 1010.11 1009.65 1009.18 1008.87 1008.49 1009.05 1009.07 1008.91 1008.68 1009.19 1009.99 1010.46 1010.66 1011.18 1011.52 1011.75 1012.10 1012.43 1012.74 1013.11 1013.26 1013.50 1013.69 1013.85 1014.06 1014.27 1014.42 1014.63 1014.82 1015.05 1015.33 1015.58 1015.75 1015.84 1016.03 1016.29 1016.43 1016.74 1017.02 1017.16 1017.34
1014.92 1015.73 1016.66 1016.52 1015.14 1013.43 1011.69 1010.35 1009.86 1009.52 1009.24 1009.03 1009.29 1009.40 1009.52 1009.43 1009.41 1009.86 1010.32 1010.86 1011.20 1011.34 1011.56 1011.78 1012.03 1012.31 1012.68 1012.97 1013.36 1013.73 1013.93 1014.08 1014.28 1014.53 1014.71 1014.86 1015.01 1015.16 1015.32 1015.59 1015.82 1015.95 1016.08 1016.18 1016.35 1016.62 1016.80 1017.08 1017.35
1015.09 1016.09 1016.61 1015.86 1014.77 1013.08 1011.59 1009.94 1009.72 1010.04 1009.42 1009.25 1009.13 1010.07 1010.14 1010.24 1010.50 1010.53 1011.13 1011.62 1011.90 1012.01 1012.23 1012.50 1012.69 1012.87 1012.95 1013.10 1013.37 1013.63 1013.89 1014.17 1014.43 1014.62 1014.79 1014.94 1015.21 1015.45 1015.63 1015.74 1015.89 1016.00 1016.08 1016.21 1016.47 1016.63 1016.70 1016.97 1017.04
1014.84 1015.96 1015.93 1015.34 1014.47 1012.92 1011.15 1010.46 1009.69 1009.61 1009.50 1009.13 1009.43 1010.07 1010.80 1010.93 1011.22 1011.29 1011.77 1012.33 1012.57 1012.80 1012.92 1012.85 1012.91 1013.04 1013.29 1013.65 1013.75 1013.71 1013.78 1014.04 1014.35 1014.64 1014.86 1015.05 1015.32 1015.56 1015.74 1015.84 1015.84 1015.85 1015.93 1016.01 1016.15 1016.37 1016.60 1016.83 1016.99
1014.42 1015.77 1016.02 1014.85 1013.54 1012.36 1011.31 1010.96 1009.96 1009.40 1009.57 1009.80 1010.53 1010.67 1010.96 1011.17 1011.75 1012.05 1012.60 1013.25 1013.57 1013.93 1013.88 1013.64 1013.69 1013.80 1013.93 1013.92 1014.11 1014.30 1014.42 1014.27 1014.31 1014.60 1014.82 1015.14 1015.32 1015.52 1015.57 1015.69 1015.75 1015.78 1015.94 1016.17 1016.23 1016.30 1016.53 1016.74 1016.88
1014.55 1015.43 1014.87 1013.86 1012.97 1012.40 1011.52 1011.38 1010.73 1009.87 1009.82 1010.72 1011.34 1011.68 1011.65 1011.79 1011.98 1012.83 1013.79 1014.51 1014.69 1014.73 1014.64 1014.65 1014.01 1014.09 1014.20 1014.26 1014.43 1014.57 1014.43 1014.75 1014.74 1014.81 1014.96 1015.27 1015.36 1015.40 1015.58 1015.64 1015.70 1015.78 1015.88 1015.99 1016.06 1016.17 1016.34 1016.62 1016.84
1013.98 1014.34 1013.68 1012.71 1012.53 1012.34 1011.67 1010.76 1010.33 1010.23 1010.30 1010.52 1011.61 1012.46 1012.61 1012.63 1013.15 1013.69 1014.79 1015.27 1015.62 1015.71 1015.49 1015.24 1014.69 1014.25 1014.32 1014.40 1014.29 1014.40 1014.69 1014.97 1015.20 1015.14 1015.08 1015.07 1015.33 1015.23 1015.48 1015.54 1015.65 1015.74 1015.75 1015.79 1015.89 1015.91 1016.06 1016.19 1016.34
1013.42 1012.99 1012.77 1012.15 1011.70 1011.84 1011.64 1010.72 1010.26 1010.27 1010.10 1010.11 1011.39 1012.20 1012.79 1013.38 1014.08 1014.41 1015.00 1015.45 1015.69 1015.89 1016.06 1015.86 1015.55 1015.20 1014.97 1015.02 1014.86 1014.91 1015.47 1015.13 1015.50 1015.51 1015.47 1015.66 1015.59 1015.51 1015.18 1015.20 1015.27 1015.28 1015.16 1015.28 1015.49 1015.59 1015.69 1015.69 1015.74
1013.19 1012.50 1012.11 1011.53 1011.47 1011.29 1010.93 1010.66 1010.60 1010.33 1010.40 1011.04 1011.99 1012.75 1013.36 1013.97 1014.75 1015.10 1015.00 1015.30 1015.40 1015.49 1015.89 1016.02 1015.96 1016.03 1015.98 1015.81 1016.26 1016.33 1016.27 1016.09 1016.33 1016.21 1016.02 1015.56 1015.26 1015.41 1015.21 1015.08 1015.07 1014.99 1015.00 1014.99 1014.99 1014.99 1015.02 1015.18 1015.30
1012.53 1012.38 1011.91 1011.09 1010.72 1010.55 1010.40 1010.18 1010.17 1010.58 1010.95 1011.81 1012.57 1013.52 1014.00 1014.22 1014.75 1015.30 1015.59 1015.88 1015.70 1015.84 1016.01 1016.07 1016.07 1016.09 1016.03 1016.21 1016.13 1016.75 1016.93 1017.14 1017.05 1016.88 1017.00 1016.87 1016.59 1016.42 1015.97 1015.49 1015.41 1015.04 1014.88 1014.58 1014.53 1014.44 1014.66 1014.70 1014.61
1012.03 1012.37 1011.56 1010.67 1010.01 1009.56 1009.53 1009.89 1009.82 1010.16 1011.12 1012.37 1013.20 1013.91 1014.61 1015.04 1015.17 1015.42 1015.99 1016.23 1016.31 1016.22 1016.27 1016.50 1016.59 1016.51 1016.28 1016.24 1016.30 1016.94 1017.18 1017.35 1017.70 1017.60 1017.57 1017.19 1017.38 1017.18 1016.75 1016.56 1016.27 1015.86 1015.45 1015.01 1014.47 1014.06 1014.03 1014.12 1014.27
1012.67 1012.48 1012.30 1010.62 1010.27 1009.68 1009.63 1009.35 1008.80 1010.13 1011.13 1012.73 1013.84 1014.89 1015.49 1015.79 1015.94 1016.05 1016.35 1016.54 1017.17 1017.06 1017.03 1017.03 1017.19 1017.33 1017.48 1017.46 1017.49 1017.45 1017.52 1017.55 1017.61 1017.63 1017.67 1017.74 1017.53 1017.62 1017.51 1017.08 1016.84 1016.36 1015.92 1015.25 1014.74 1014.38 1013.99 1013.68 1013.63
1013.34 1012.97 1012.44 1011.32 1010.35 1010.03 1010.43 1009.89 1009.44 1009.93 1010.71 1012.49 1013.81 1014.98 1016.08 1016.76 1017.11 1017.10 1016.91 1017.00 1017.20 1017.00 1017.44 1017.25 1017.41 1017.95 1018.25 1018.19 1018.10 1018.26 1018.31 1018.32 1018.30 1018.18 1018.12 1017.94 1017.80 1017.79 1017.71 1017.49 1017.18 1016.79 1016.24 1015.73 1015.23 1014.63 1014.21 1013.37 1013.10
1013.77 1012.97 1012.40 1011.95 1010.78 1010.30 1010.36 1010.34 1010.38 1011.03 1011.59 1013.01 1014.32 1015.35 1016.36 1017.09 1017.41 1017.59 1017.53 1017.69 1017.67 1017.43 1017.05 1017.10 1017.41 1017.68 1017.99 1018.15 1018.34 1018.24 1018.19 1018.35 1018.43 1018.51 1018.31 1018.14 1018.11 1018.00 1017.91 1017.63 1017.21 1016.84 1016.52 1015.96 1015.48 1015.01 1014.49 1014.23 1013.63
1013.56 1013.25 1012.50 1011.60 1010.90 1010.64 1010.61 1010.81 1010.65 1011.70 1012.86 1014.09 1014.80 1015.48 1016.22 1016.78 1017.28 1017.61 1017.83 1017.88 1017.71 1017.48 1017.55 1017.29 1017.53 1018.18 1018.21 1018.09 1018.27 1018.42 1018.70 1018.55 1018.47 1018.31 1018.27 1018.27 1018.10 1017.85 1017.60 1017.43 1017.29 1016.97 1016.79 1016.42 1015.86 1015.23 1014.67 1014.09 1013.74
1013.19 1013.25 1012.55 1011.37 1011.00 1010.81 1010.85 1011.06 1011.13 1012.02 1012.85 1013.38 1014.55 1015.93 1016.67 1017.25 1017.67 1017.79 1017.91 1017.89 1017.87 1017.63 1017.64 1017.53 1017.88 1018.48 1018.58 1018.46 1018.40 1018.38 1018.52 1018.81 1018.87 1018.72 1018.44 1018.19 1017.94 1017.81 1017.71 1017.65 1017.37 1016.95 1016.54 1016.16 1015.78 1015.45 1014.95 1014.47 1013.99
1012.16 1012.54 1012.25 1011.65 1011.16 1011.02 1011.24 1011.56 1011.57 1012.22 1012.83 1013.77 1014.85 1015.66 1016.53 1016.84 1017.22 1017.70 1017.91 1017.88 1017.63 1017.73 1017.78 1017.78 1017.88 1018.18 1018.67 1018.72 1018.51 1018.50 1018.64 1018.81 1018.79 1018.51 1018.35 1018.12 1017.80 1017.58 1017.41 1017.30 1017.16 1016.95 1016.64 1016.27 1015.80 1015.43 1015.14 1014.56 1014.24
1011.65 1011.18 1011.54 1011.74 1011.94 1012.01 1011.66 1012.43 1012.36 1012.52 1013.32 1014.08 1014.87 1015.53 1016.15 1016.80 1017.26 1017.64 1017.95 1017.94 1017.92 1017.79 1017.74 1017.82 1017.93 1018.31 1018.60 1018.81 1019.07 1019.23 1019.45 1019.53 1018.97 1018.62 1018.23 1017.94 1017.57 1017.24 1017.05 1016.99 1016.91 1016.82 1016.57 1016.21 1015.70 1015.19 1014.93 1014.73 1014.35
1011.00 1010.88 1011.40 1012.04 1012.61 1012.91 1012.21 1013.52 1012.83 1013.29 1013.98 1014.45 1015.11 1015.76 1016.22 1016.70 1017.16 1017.65 1017.91 1017.95 1017.98 1017.96 1017.88 1017.93 1018.26 1018.65 1018.95 1019.21 1019.37 1019.62 1019.60 1019.19 1018.60 1018.31 1018.09 1017.82 1017.50 1017.24 1016.97 1016.79 1016.65 1016.46 1016.21 1015.80 1015.51 1015.06 1014.74 1014.41 1014.28
1010.92 1011.35 1012.12 1012.97 1013.52 1014.13 1013.56 1014.08 1013.70 1013.65 1013.92 1014.46 1015.21 1015.62 1016.07 1016.66 1017.09 1017.45 1017.69 1017.84 1017.88 1017.94 1017.80 1017.97 1018.40 1018.79 1019.04 1019.21 1019.42 1019.65 1019.49 1019.04 1018.76 1018.49 1018.34 1018.04 1017.65 1017.21 1016.81 1016.67 1016.39 1016.16 1016.02 1015.67 1015.31 1015.05 1014.72 1014.46 1014.07
1011.45 1012.50 1013.68 1014.41 1014.85 1014.78 1014.38 1014.69 1013.69 1013.55 1013.67 1013.95 1014.42 1015.33 1015.93 1016.35 1016.83 1017.14 1017.39 1017.48 1017.62 1017.67 1017.79 1017.99 1018.18 1018.80 1019.08 1019.20 1019.23 1019.25 1018.96 1018.88 1018.88 1018.72 1018.34 1017.82 1017.64 1017.38 1016.92 1016.55 1016.13 1015.85 1015.58 1015.40 1015.17 1014.95 1014.64 1014.31 1014.19
1012.04 1012.97 1014.47 1015.34 1016.06 1015.78 1015.27 1014.81 1013.59 1013.67 1013.63 1013.10 1013.92 1015.12 1015.97 1016.31 1016.37 1016.62 1016.95 1017.29 1017.42 1017.43 1017.53 1018.01 1018.53 1019.14 1019.21 1019.23 1019.19 1018.90 1018.58 1018.46 1018.54 1018.43 1018.24 1017.91 1017.65 1017.35 1016.86 1016.47 1016.10 1016.03 1015.72 1015.36 1015.03 1014.83 1014.54 1014.23 1014.01
1012.67 1013.39 1014.06 1015.61 1016.84 1017.15 1015.96 1014.84 1014.02 1013.96 1014.37 1014.49 1014.72 1015.36 1015.98 1016.45 1016.73 1016.69 1016.72 1016.94 1017.28 1017.35 1017.50 1017.99 1018.73 1019.17 1019.12 1019.01 1018.78 1018.78 1018.99 1019.08 1018.78 1018.46 1018.31 1018.20 1017.96 1017.63 1017.34 1017.02 1016.76 1016.35 1015.96 1015.54 1014.96 1014.75 1014.47 1014.02 1013.60
1012.79 1013.72 1014.98 1016.61 1017.72 1017.91 1016.75 1015.68 1014.63 1014.56 1014.60 1014.83 1015.15 1015.38 1015.82 1016.14 1016.88 1017.29 1017.64 1017.45 1017.19 1017.22 1017.67 1018.01 1018.53 1018.85 1018.90 1018.80 1019.05 1019.12 1018.94 1018.65 1018.56 1018.39 1018.45 1018.21 1017.75 1017.46 1017.38 1017.02 1016.75 1016.63 1016.04 1015.37 1015.12 1014.88 1014.40 1014.18 1013.72
1014.01 1014.76 1015.96 1016.91 1018.05 1018.57 1017.74 1015.68 1014.05 1013.83 1013.74 1014.44 1014.56 1015.01 1015.35 1015.85 1016.22 1016.24 1016.75 1017.15 1017.50 1017.20 1017.98 1018.21 1018.47 1018.55 1018.69 1018.64 1018.76 1018.99 1019.00 1018.76 1018.57 1018.53 1018.22 1017.79 1017.47 1017.07 1016.86 1016.74 1016.62 1016.14 1015.90 1015.67 1015.38 1014.99 1014.50 1014.12 1013.64
1015.13 1015.18 1016.32 1017.62 1018.56 1018.63 1017.44 1014.87 1013.41 1013.30 1013.42 1013.90 1014.02 1014.33 1014.73 1014.97 1015.35 1015.84 1016.12 1016.81 1017.47 1017.59 1017.89 1018.17 1018.27 1018.24 1018.58 1018.77 1018.98 1019.04 1018.95 1018.91 1018.69 1018.38 1017.94 1017.54 1017.18 1016.59 1016.49 1016.38 1016.23 1016.04 1015.77 1015.58 1015.43 1015.03 1014.58 1014.15 1013.68
Thickness
5757 5756 5757 5750 5717 5700 5698 5716 5741 5748 5762 5774 5777 5768 5771 5773 5768 5744 5789 5789 5788 5782 5781 5775 5774 5773 5771 5769 5769 5768 5767 5765 5763 5761 5759 5756 5752 5750 5748 5747 5746 5744 5742 5740 5738 5735 5734 5732 5730
5758 5756 5749 5728 5696 5688 5701 5725 5735 5748 5770 5781 5778 5774 5775 5767 5785 5781 5782 5786 5785 5784 5779 5777 5773 5771 5770 5767 5765 5764 5763 5762 5761 5758 5755 5752 5750 5747 5745 5743 5741 5739 5737 5735 5733 5730 5728 5728 5727
5758 5755 5732 5703 5676 5687 5701 5736 5750 5755 5770 5772 5776 5786 5779 5770 5782 5783 5788 5784 5781 5780 5777 5774 5772 5769 5768 5765 5763 5761 5760 5758 5757 5755 5753 5750 5747 5745 5741 5739 5737 5735 5732 5730 5728 5725 5724 5724 5722
5753 5740 5722 5698 5698 5709 5722 5745 5754 5754 5769 5774 5776 5766 5781 5788 5787 5792 5785 5780 5778 5776 5774 5771 5767 5764 5762 5760 5758 5757 5757 5755 5753 5751 5748 5746 5743 5741 5739 5737 5734 5731 5729 5726 5724 5722 5720 5718 5716
5745 5725 5698 5693 5698 5715 5733 5750 5757 5754 5761 5765 5772 5758 5763 5783 5793 5788 5782 5778 5775 5771 5768 5767 5764 5762 5760 5756 5756 5754 5752 5751 5749 5747 5745 5742 5740 5738 5735 5733 5731 5729 5727 5724 5721 5718 5715 5713 5712
5723 5717 5687 5684 5701 5722 5739 5754 5762 5756 5759 5763 5757 5755 5759 5780 5781 5779 5776 5772 5769 5768 5767 5766 5765 5763 5760 5757 5754 5750 5748 5747 5745 5742 5740 5738 5736 5734 5732 5729 5727 5725 5723 5722 5720 5716 5714 5711 5709
5717 5702 5693 5698 5704 5717 5738 5756 5751 5744 5750 5756 5764 5742 5757 5766 5771 5775 5770 5765 5764 5763 5762 5760 5758 5757 5756 5755 5752 5749 5746 5743 5741 5739 5736 5735 5732 5728 5726 5724 5723 5721 5720 5718 5715 5713 5712 5708 5707
5719 5705 5703 5702 5700 5711 5741 5746 5756 5749 5747 5765 5764 5741 5739 5758 5765 5768 5763 5758 5756 5755 5754 5754 5753 5752 5750 5747 5745 5745 5744 5741 5737 5733 5731 5729 5726 5724 5722 5720 5719 5719 5717 5715 5713 5711 5708 5706 5703
5730 5690 5683 5705 5716 5724 5741 5734 5752 5758 5750 5750 5746 5752 5753 5757 5757 5756 5751 5746 5745 5744 5744 5745 5744 5742 5740 5740 5738 5735 5733 5734 5732 5729 5726 5723 5721 5718 5718 5717 5716 5714 5712 5709 5708 5707 5705 5702 5699
5712 5687 5697 5718 5728 5726 5735 5733 5738 5746 5742 5737 5736 5744 5748 5750 5750 5743 5736 5731 5731 5731 5732 5732 5736 5735 5735 5732 5730 5727 5727 5723 5723 5721 5718 5715 5714 5713 5711 5711 5710 5709 5707 5705 5704 5702 5701 5699 5695
5717 5700 5715 5728 5728 5728 5730 5736 5746 5742 5736 5743 5731 5730 5737 5739 5736 5733 5724 5721 5718 5719 5720 5720 5724 5728 5728 5725 5726 5723 5719 5715 5713 5712 5713 5712 5708 5708 5705 5705 5704 5703 5702 5702 5700 5699 5698 5697 5694
5718 5723 5724 5728 5737 5732 5728 5740 5741 5740 5746 5749 5737 5734 5733 5731 5725 5723 5720 5716 5712 5710 5709 5711 5712 5713 5717 5714 5714 5712 5707 5710 5706 5703 5704 5701 5701 5701 5701 5701 5699 5701 5702 5701 5698 5696 5694 5694 5693
5713 5722 5730 5733 5730 5729 5734 5732 5733 5738 5739 5737 5731 5726 5723 5722 5718 5717 5719 5713 5712 5711 5706 5704 5705 5702 5702 5705 5697 5695 5696 5696 5692 5692 5693 5696 5697 5696 5695 5696 5695 5695 5695 5695 5695 5695 5693 5691 5690
5724 5720 5720 5729 5730 5729 5729 5730 5735 5734 5730 5723 5721 5714 5716 5717 5714 5710 5707 5703 5705 5702 5697 5695 5696 5694 5693 5692 5692 5686 5683 5681 5681 5681 5678 5678 5679 5679 5681 5685 5684 5686 5687 5690 5690 5691 5688 5687 5685
5727 5712 5718 5726 5732 5731 5732 5723 5724 5730 5721 5711 5710 5710 5706 5706 5708 5706 5699 5696 5695 5693 5690 5688 5687 5686 5686 5685 5683 5676 5672 5670 5666 5666 5666 5668 5664 5665 5667 5667 5669 5671 5674 5677 5680 5683 5682 5683 5680
5707 5708 5691 5723 5728 5728 5726 5708 5736 5723 5717 5704 5699 5694 5693 5694 5695 5696 5692 5690 5683 5681 5680 5678 5675 5671 5670 5668 5665 5664 5663 5660 5658 5656 5655 5654 5655 5653 5652 5655 5656 5658 5660 5664 5669 5672 5673 5675 5674
5688 5677 5688 5698 5722 5718 5712 5707 5725 5723 5718 5702 5696 5687 5682 5679 5679 5681 5683 5680 5677 5676 5671 5671 5668 5662 5657 5655 5655 5652 5650 5648 5646 5646 5644 5643 5643 5642 5642 5643 5644 5645 5647 5650 5653 5657 5659 5664 5666
5673 5680 5686 5682 5701 5711 5703 5700 5714 5706 5706 5696 5684 5679 5674 5670 5670 5669 5670 5668 5666 5667 5669 5668 5663 5658 5654 5650 5645 5645 5644 5640 5637 5635 5635 5634 5632 5631 5631 5631 5632 5633 5634 5637 5639 5641 5644 5644 5647
5685 5680 5680 5690 5701 5700 5699 5698 5705 5693 5686 5678 5677 5675 5670 5666 5663 5660 5659 5658 5660 5661 5659 5659 5656 5648 5645 5643 5640 5635 5631 5631 5629 5627 5623 5621 5620 5620 5620 5619 5619 5620 5620 5620 5621 5624 5626 5628 5628
5680 5669 5671 5692 5699 5697 5690 5688 5698 5686 5679 5678 5670 5659 5658 5656 5652 5652 5650 5650 5650 5652 5650 5648 5642 5635 5632 5631 5628 5627 5625 5620 5616 5614 5612 5610 5608 5606 5604 5602 5603 5604 5605 5606 5607 5607 5610 5611 5611
5681 5670 5672 5678 5689 5688 5682 5670 5690 5686 5678 5672 5663 5656 5649 5651 5651 5648 5645 5643 5645 5643 5639 5636 5632 5627 5621 5616 5616 5614 5612 5608 5606 5604 5603 5602 5600 5598 5597 5593 5591 5590 5590 5590 5590 5589 5588 5593 5593
5670 5688 5683 5677 5668 5653 5678 5629 5668 5674 5667 5665 5659 5652 5647 5643 5641 5638 5633 5633 5633 5631 5628 5624 5621 5616 5609 5604 5599 5597 5593 5590 5592 5591 5591 5589 5586 5585 5582 5579 5576 5574 5572 5571 5571 5571 5568 5566 5569
5680 5689 5680 5674 5658 5654 5670 5630 5647 5658 5652 5649 5645 5641 5637 5634 5631 5625 5621 5620 5620 5618 5616 5613 5608 5601 5594 5588 5584 5580 5576 5577 5578 5576 5574 5571 5568 5565 5564 5562 5559 5556 5553 5552 5550 5548 5546 5543 5540
5689 5679 5659 5650 5641 5622 5647 5636 5639 5650 5652 5644 5638 5635 5632 5625 5621 5619 5614 5611 5609 5605 5604 5601 5594 5586 5580 5573 5570 5565 5562 5561 5560 5558 5555 5552 5550 5548 5545 5542 5539 5535 5530 5527 5523 5517 5514 5510 5507
5671 5650 5616 5611 5612 5611 5643 5624 5638 5642 5645 5643 5637 5629 5624 5619 5613 5610 5606 5601 5598 5595 5592 5588 5583 5573 5565 5561 5560 5556 5555 5552 5547 5543 5542 5539 5531 5525 5520 5516 5512 5507 5503 5497 5493 5487 5481 5476 5472
5655 5644 5607 5599 5594 5602 5627 5612 5635 5638 5638 5648 5635 5621 5615 5609 5608 5603 5598 5591 5589 5586 5582 5573 5564 5555 5552 5550 5546 5544 5542 5537 5530 5525 5519 5515 5510 5503 5499 5496 5491 5484 5479 5473 5467 5461 5455 5451 5446
5645 5629 5637 5609 5595 5577 5596 5615 5627 5629 5621 5618 5615 5608 5601 5594 5590 5589 5588 5583 5578 5575 5568 5559 5547 5540 5538 5535 5532 5526 5518 5511 5508 5505 5500 5493 5488 5484 5477 5470 5464 5460 5457 5454 5450 5443 5440 5438 5435
5645 5641 5612 5586 5580 5570 5583 5592 5596 5611 5604 5602 5599 5596 5589 5584 5577 5571 5565 5565 5566 5562 5552 5543 5534 5529 5524 5520 5514 5507 5503 5500 5493 5487 5479 5473 5470 5466 5458 5454 5450 5443 5440 5439 5436 5432 5431 5426 5422
5617 5610 5601 5596 5574 5559 5555 5567 5605 5611 5602 5592 5590 5587 5579 5571 5567 5567 5562 5556 5551 5548 5536 5527 5520 5518 5513 5508 5501 5493 5485 5481 5475 5467 5462 5459 5454 5450 5445 5441 5435 5432 5429 5426 5424 5423 5421 5418 5413
5608 5607 5592 5562 5566 5559 5540 5566 5615 5601 5594 5584 5586 5578 5566 5568 5560 5556 5554 5545 5537 5532 5522 5514 5508 5505 5497 5489 5482 5475 5466 5459 5453 5448 5447 5443 5438 5439 5435 5429 5425 5423 5422 5419 5415 5414 5412 5410 5406